YAOGAN-4

Last updated on Sat Nov 01 2025 00:02:29 GMT+0000 (Coordinated Universal Time)

1 33446U 08061A 25304.55684810 .00002088 00000+0 26618-3 0 9999 2 33446 97.9115 235.0907 0016066 94.4468 265.8581 14.82487258911784
UTC large
Height (km)
Speed (km/s)
/
Latitude / Longitude
Inclination (degrees)
Orbital Period (minutes)
Azimuth
Elevation
Range (km)
Doppler Factor

Next 0 passes for location: London (51.5072 / 0.1276)

Sorry there are no passes over London.